Lid_Strength_Index
-1 -1 -1 2 7 7 9 9 7 7 7 5 4 6 7 6 8 10 1 0 -0 -1 -1 -1 -2 -1 -1 -1 -2 -2 -1 -1 -1 -2 -2 -1 -1 -1 -1 -1 -1 -1 -1 -1 -1 -1 -1 -1 -1
-1 -0 1 3 8 10 10 7 8 7 5 4 4 5 6 7 4 3 2 -0 -0 -1 -1 -1 -1 -2 -2 -1 -2 -2 -1 -1 -1 -1 -1 -1 -1 -1 -2 -2 -2 -2 -1 -1 -1 -1 -1 -1 -1
-0 0 4 5 7 9 10 7 7 6 5 5 6 4 5 6 3 2 0 -0 -1 -1 -1 -2 -1 -1 -2 -2 -1 -2 -2 -2 -1 -1 -1 -1 -1 -1 -1 -2 -2 -2 -2 -2 -2 -2 -1 -1 -1
1 2 3 6 9 8 8 7 6 6 5 4 4 7 4 2 2 1 -0 -1 -0 -1 -1 -1 -1 -1 -2 -2 -1 -1 -1 -1 -1 -1 -1 -1 -1 -1 -1 -1 -1 -1 -1 -1 -1 -1 -1 -1 -1
1 2 5 8 8 7 6 6 5 6 6 5 5 7 6 2 1 0 -0 -0 -0 -1 -1 -1 -1 -1 -1 -1 -1 -1 -1 -2 -2 -1 -1 -1 -1 -1 -1 -1 -1 -1 -1 -1 -1 -2 -1 -1 -1
4 3 7 9 9 7 6 5 5 6 5 5 5 6 5 1 1 1 -0 -0 -1 -1 -1 -2 -2 -2 -1 -1 -1 -1 -1 -2 -2 -1 -1 -1 -1 -1 -1 -1 -1 -1 -1 -1 -2 -2 -1 -1 -1
4 5 7 7 8 8 7 4 6 6 5 6 4 7 4 3 1 0 -0 -1 -1 -1 -1 -1 -2 -2 -2 -1 -1 -1 -2 -2 -2 -1 -1 -1 -1 -1 -1 -1 -1 -1 -1 -1 -2 -2 -1 -1 -1
3 3 7 7 8 8 6 5 5 5 6 3 3 7 6 3 1 0 -0 -0 -0 -1 -1 -1 -2 -1 -2 -2 -2 -2 -2 -2 -2 -2 -2 -3 -3 -3 -2 -2 -2 -1 -1 -1 -1 -1 -2 -2 -1
4 6 7 7 7 7 5 6 4 4 5 5 4 4 3 1 1 1 1 0 0 -0 -1 -2 -1 -0 -1 -1 -2 -3 -3 -3 -3 -3 -3 -3 -2 -1 -1 -2 -2 -2 -1 -1 -1 -1 -1 -2 -2
5 6 7 5 5 6 5 5 5 6 6 6 5 3 2 1 2 2 2 2 1 1 -0 -1 -2 -2 -2 -2 -2 -2 -2 -2 -2 -2 -2 -2 -2 -2 -2 -3 -2 -2 -2 -2 -1 -1 -1 -1 -1
5 7 6 6 5 5 5 6 4 6 7 5 6 4 3 2 2 2 2 1 1 0 -0 -1 -1 -2 -2 -1 -2 -2 -2 -2 -1 -2 -1 -1 -1 -1 -1 -0 -0 -2 -2 -1 -2 -1 -1 -1 -1
7 5 5 5 4 5 6 5 6 5 6 4 3 3 3 3 2 2 2 1 1 0 -0 -1 -1 -1 -2 -2 -1 -2 -1 -2 -2 -2 -2 -2 -1 -2 -1 -1 -1 -1 -1 -1 -1 -1 -1 -1 -1
6 6 5 4 4 5 4 6 6 6 4 3 3 3 3 2 2 1 1 1 0 1 0 -0 -1 -1 -2 -2 -2 -2 -2 -1 -2 -1 -1 -1 -1 -1 -1 -1 -1 -1 -1 -1 -1 -1 -1 -1 -1
5 5 5 5 5 5 6 6 6 5 3 4 3 3 2 2 2 2 1 1 1 0 -0 -1 -1 -2 -1 -1 -2 -1 -2 -2 -1 -1 -0 -0 0 0 0 -0 -0 -1 -1 -1 -1 -1 -1 -1 -1
5 7 6 6 5 6 5 8 8 5 4 4 4 3 3 2 2 2 1 1 0 0 -0 -1 -1 -1 -1 -1 -2 -2 -1 -1 -1 -0 -0 -0 0 1 1 1 1 -0 -1 -1 -1 -1 -1 -1 -1
7 6 9 7 6 6 6 10 7 4 5 5 4 4 3 3 2 1 1 1 0 0 -0 -0 -0 -1 -1 -1 -1 -1 -1 -1 -0 0 0 1 1 1 1 1 1 -0 -0 -0 1 1 1 -0 -0
7 10 9 9 6 6 7 10 6 4 5 5 4 4 4 3 2 1 1 1 0 0 0 1 -0 -0 -1 -1 -1 -1 -2 -0 0 1 1 1 1 1 1 1 1 0 0 1 1 1 1 1 0
9 9 8 9 7 7 8 9 6 5 5 5 5 4 4 4 3 2 1 1 1 2 1 1 1 0 -1 -0 -1 -0 0 0 1 1 1 1 1 2 2 1 2 1 2 2 2 1 1 0 1
6 7 8 7 7 8 8 8 7 6 6 5 5 5 4 4 2 1 1 1 3 2 1 2 2 -0 0 1 1 1 1 1 2 2 1 2 2 3 3 3 2 2 2 2 2 2 2 1 0
7 7 8 8 7 7 8 9 7 6 6 5 5 5 4 4 3 2 2 3 3 3 3 2 0 0 0 1 1 1 2 2 2 1 1 1 2 2 3 3 3 2 2 1 2 2 3 2 1
8 7 8 8 8 8 9 10 9 7 6 5 4 4 4 4 4 3 2 2 2 3 2 1 1 0 0 0 1 1 1 1 2 2 2 1 2 3 3 2 2 2 2 3 2 2 2 4 2
8 6 7 9 10 11 8 12 11 8 8 6 5 5 5 4 3 3 2 2 3 2 1 1 0 0 1 1 1 1 3 3 3 2 3 2 3 4 3 2 2 2 2 2 2 1 1 2 4
7 5 7 8 9 10 11 12 10 8 10 8 6 5 4 4 3 3 3 3 3 2 2 0 -0 1 1 1 1 2 2 3 2 3 3 2 3 3 3 2 1 2 2 1 1 1 2 2 3
5 7 8 8 9 13 10 11 10 11 9 8 6 5 5 4 3 3 3 3 3 2 1 0 1 1 1 1 1 2 3 3 3 4 4 4 4 4 3 2 2 1 1 1 2 1 1 2 3
7 9 12 13 12 12 10 11 9 8 7 6 6 6 5 4 3 4 4 3 2 2 1 2 2 2 1 1 2 2 3 3 3 3 4 4 4 4 2 2 1 1 1 1 1 0 1 1 3
8 8 10 14 13 11 11 12 10 7 6 6 5 5 4 4 3 3 4 3 2 1 2 3 3 2 2 2 2 2 2 3 3 2 3 3 3 3 2 2 1 1 1 1 1 1 1 1 1
8 9 7 10 10 11 9 10 9 7 7 6 6 5 5 4 4 4 4 3 2 2 2 3 3 3 2 2 2 2 2 2 2 1 2 2 2 2 2 1 1 1 0 1 0 2 1 1 1
6 5 10 9 13 14 11 11 10 10 9 7 7 6 5 4 4 4 3 3 2 2 3 3 3 3 3 2 3 3 2 2 2 1 2 1 1 1 2 2 1 1 2 1 1 2 1 1 2
7 8 8 8 10 12 13 11 8 8 7 7 6 5 5 4 5 4 3 2 2 3 3 3 3 3 3 2 3 3 2 2 1 1 1 2 1 1 1 2 2 3 3 3 3 1 2 2 2
6 7 7 10 11 10 11 11 7 7 6 6 6 5 4 3 4 3 3 2 3 3 4 3 3 3 3 2 3 3 2 2 1 1 1 1 2 2 2 2 2 3 2 2 1 2 2 1 2